Location: Chaumontel
(49.1247°N, 2.4324°E)
Time: 01:46:32
(UTC+00:00)

IRIDIUM 103 - Pass Details

Date: 17 May 2025
Orbit: 775 x 779 km, 86.4° (Epoch: 12 June)

Event Time Altitude Azimuth Distance (km) Brightness Sun altitude
Exits shadow 02:01:30 23° 225° (SW) 1,598 5.4 -15.2°
Maximum altitude 02:04:14 41° 281° (W) 1,122 5.0 -15.0°
Drops below altitude 10° 02:09:11 10° 351° (N) 2,343 7.5 -14.5°
Sets 02:11:41 0° 359° (N) 3,275 8.5 -14.3°
